Regional Weather Roundup
Issued by NWS

Home | Current Version | Previous Version | Text Only | Print | Product List | Glossary On
Versions: 1 2 3 4 5 6 7 8 9 10 11 12 13 14 15 16 17 18 19 20 21 22 23 24 25 26 27
000
ASUS46 KSEW 221810
RWRWA

WASHINGTON REGIONAL WEATHER ROUNDUP
NATIONAL WEATHER SERVICE SEATTLE WA
1000 AM PST SUN JAN 22 2017

NOTE:"FAIR" INDICATES FEW OR NO CLOUDS BELOW 12,000 FEET WITH NO
SIGNIFICANT WEATHER AND/OR OBSTRUCTIONS TO VISIBILITY.

WAZ507-509-555>559-221900-
SEATTLE, TACOMA, EVERETT, AND VICINITY

CITY           SKY/WX    TMP DP  RH WIND       PRES   REMARKS
EVERETT        LGT RAIN  46  37  71 SE10      29.49R
6HR MIN TEMP:  38; 6HR MAX TEMP:  47; 6HR PCP: TRACE;

BOEING FIELD   LGT RAIN  45  43  93 CALM      29.49R
6HR MIN TEMP:  39; 6HR MAX TEMP:  46; 6HR PCP:  0.08;

RENTON         CLOUDY    47  38  71 SE3       29.49R
6HR MIN TEMP:  38; 6HR MAX TEMP:  51; 6HR PCP:  0.01;

SEATAC AIRPORT CLOUDY    45  40  82 SE7       29.49R
6HR MIN TEMP:  40; 6HR MAX TEMP:  49; 6HR PCP:  0.06;

JBLM-MCCHORD   LGT RAIN  39  39 100 CALM      29.51R
6HR MIN TEMP:  35; 6HR MAX TEMP:  40; 6HR PCP: TRACE;

PUYALLUP         N/A     39  39 100 CALM      29.50R
BREMERTON      CLOUDY    41  39  93 CALM      29.53R
6HR MIN TEMP:  37; 6HR MAX TEMP:  43; 6HR PCP:  0.12;

JBLM-FT LEWIS  CLOUDY    40  40 100 CALM      29.50R
6HR MIN TEMP:  35; 6HR MAX TEMP:  40; 6HR PCP:  0.01;

TACOMA NARROWS CLOUDY    42  41  96 CALM      29.50R
6HR MIN TEMP:  40; 6HR MAX TEMP:  43; 6HR PCP:  0.03;

$$

WAZ001-503-506-510-514-515-221900-
NORTH INTERIOR

CITY           SKY/WX    TMP DP  RH WIND       PRES   REMARKS
BELLINGHAM     CLOUDY    44  33  65 CALM      29.47R
6HR MIN TEMP:  33; 6HR MAX TEMP:  44;

FRIDAY HARBOR  CLOUDY    47  34  60 SE16      29.48R
6HR MIN TEMP:  39; 6HR MAX TEMP:  47;

EASTSOUND      CLOUDY    45  34  65 E5        29.46R
PORT ANGELES   CLOUDY    41  37  86 SW14      29.43R
6HR MIN TEMP:  31; 6HR MAX TEMP:  43;

EDIZ HOOK      MOCLDY    44  36  75 NW10      29.43R
6HR MIN TEMP:  38; 6HR MAX TEMP:  46;

PORT TOWNSEND  LGT RAIN  41  41 100 VRB5      29.49R
NAS WHIDBEY    LGT RAIN  46  36  68 SE14      29.52R
6HR MIN TEMP:  38; 6HR MAX TEMP:  47; 6HR PCP: TRACE;

ARLINGTON      NOT AVBL
BURLINGTON     CLOUDY    45  32  61 S8        29.49R
$$

WAZ020-022-039-040-504-511-512-221900-
SOUTHWEST INTERIOR

CITY           SKY/WX    TMP DP  RH WIND       PRES   REMARKS
SHELTON        CLOUDY    42  39  89 NE3       29.48R
6HR MIN TEMP:  41; 6HR MAX TEMP:  43; 6HR PCP:  0.05;

OLYMPIA        CLOUDY    40  40 100 CALM      29.50R
6HR MIN TEMP:  37; 6HR MAX TEMP:  40; 6HR PCP:  0.04;

CHEHALIS       CLOUDY    43  43 100 S7        29.49R
KELSO          CLOUDY    45  39  79 SE13      29.51R
6HR MIN TEMP:  39; 6HR MAX TEMP:  45; 6HR PCP:  0.09;

VANCOUVER      CLOUDY    42  37  82 SE7       29.54R
6HR MIN TEMP:  40; 6HR MAX TEMP:  44; 6HR PCP:  0.12;

SCAPPOOSE, OR  CLOUDY    43  41  93 CALM      29.52R
6HR MIN TEMP:  37; 6HR MAX TEMP:  43; 6HR PCP:  0.14;

PORTLAND, OR   CLOUDY    43  38  82 SE8       29.54R
6HR MIN TEMP:  39; 6HR MAX TEMP:  43; 6HR PCP:  0.13;

$$

WAZ021-516-517-221900-
WASHINGTON COAST

CITY           SKY/WX    TMP DP  RH WIND       PRES   REMARKS
FORKS          CLOUDY    42  40  92 E12       29.41R
6HR MIN TEMP:  35; 6HR MAX TEMP:  42; 6HR PCP:  0.03;

HOQUIAM        CLOUDY    44  41  89 E12       29.45R
6HR MIN TEMP:  42; 6HR MAX TEMP:  44; 6HR PCP:  0.09;

ASTORIA, OR    PTSUNNY   47  36  65 S8        29.44R
6HR MIN TEMP:  44; 6HR MAX TEMP:  47; 6HR PCP:  0.09;

$$

WAZ019-023-024-040-567>569-221900-
CASCADE MOUNTAINS AND COLUMBIA GORGE

CITY           SKY/WX    TMP DP  RH WIND       PRES   REMARKS
STAMPEDE PASS  NOT AVBL
TROUTDALE, OR  CLOUDY    41  37  86 E15       29.55R
6HR MIN TEMP:  41; 6HR MAX TEMP:  43; 6HR PCP:  0.07;

THE DALLES, OR LGT RAIN  36  34  92 W8        29.59R FOG
6HR MIN TEMP:  33; 6HR MAX TEMP:  36; 6HR PCP:  0.06;

$$

WAZ026-027-041>044-520-521-221900-
EAST SLOPES

CITY           SKY/WX    TMP DP  RH WIND       PRES   REMARKS
OMAK           CLOUDY    34  32  92 CALM      29.64S FOG
6HR MIN TEMP:  33; 6HR MAX TEMP:  34; 6HR PCP: TRACE;

WENATCHEE      LGT RAIN  34  33  96 CALM      29.61S
6HR MIN TEMP:  32; 6HR MAX TEMP:  34; 6HR PCP:  0.03;

ELLENSBURG     LGT SNOW  34  32  92 CALM      29.56R VSB 3/4
6HR MIN TEMP:  33; 6HR MAX TEMP:  35; 6HR PCP: TRACE;

YAKIMA         LGT SNOW  34  33  96 W7        29.58R VSB 3/4
6HR MIN TEMP:  32; 6HR MAX TEMP:  34; 6HR PCP:  0.20;

$$

WAZ028-034-035-221900-
COLUMBIA BASIN

CITY           SKY/WX    TMP DP  RH WIND       PRES   REMARKS
EPHRATA        CLOUDY    37  29  72 N8        29.60R
6HR MIN TEMP:  33; 6HR MAX TEMP:  37;

MOSES LAKE     CLOUDY    35  31  85 SW5       29.61R
6HR MIN TEMP:  26; 6HR MAX TEMP:  37;

PASCO          LGT RAIN  29  29 100 E5        29.63R VSB 1
6HR MIN TEMP:  25; 6HR MAX TEMP:  30; 6HR PCP: TRACE;

HERMISTON, OR  RAIN      43  35  73 E9        29.55F
6HR MIN TEMP:  28; 6HR MAX TEMP:  45; 6HR PCP:  0.07;

$$

WAZ036>038-221900-
NORTHEAST WASHINGTON

CITY           SKY/WX    TMP DP  RH WIND       PRES   REMARKS
SPOKANE GEIGER PTSUNNY   37  31  78 E12       29.63S
6HR MIN TEMP:  33; 6HR MAX TEMP:  37; 6HR PCP: TRACE;

SPOKANE FELTS  MOSUNNY   39  32  76 SE6       29.65S
6HR MIN TEMP:  32; 6HR MAX TEMP:  40;

FAIRCHILD AFB  PTSUNNY   34  34  99 E16       29.61F WCI  24
6HR MIN TEMP:  29; 6HR MAX TEMP:  35; 6HR PCP: TRACE;

COEURDALENE,ID MOSUNNY   35  32  88 N15       29.67S WCI  25
6HR MIN TEMP:  32; 6HR MAX TEMP:  35; 6HR PCP: TRACE;

DEER PARK      MOSUNNY   36  31  82 NE12      29.66S
6HR MIN TEMP:  32; 6HR MAX TEMP:  36; 6HR PCP:  0.01;

$$

WAZ029>033-221900-
SOUTHEAST WASHINGTON

CITY           SKY/WX    TMP DP  RH WIND       PRES   REMARKS
PULLMAN        CLOUDY    37  28  70 E20       29.63S
6HR MIN TEMP:  33; 6HR MAX TEMP:  37;

LEWISTON, ID   CLOUDY    37  30  75 CALM      29.65F
6HR MIN TEMP:  31; 6HR MAX TEMP:  38;

WALLA WALLA    CLOUDY    44  27  51 VRB3      29.57R
6HR MIN TEMP:  37; 6HR MAX TEMP:  46;

PENDLETON, OR  CLOUDY    42  30  62 E13       29.53S
6HR MIN TEMP:  40; 6HR MAX TEMP:  44; 6HR PCP: TRACE;

$$




USA.gov is the U.S. government's official web portal to all federal, state and local government web resources and services.